Sarasota, FL

10:56 AM EST on December 13, 2019 (GMT -0500)
Sarasota-bradenton

Weather History for KSRQ - August, 2019

Change the Weather History Date:

Sunday, August 4, 2019

  Actual Average Record
Temperature  
Mean Temperature 85 °F 82 °F  
Max Temperature 91 °F 90 °F 97 °F (1989)
Min Temperature 78 °F 75 °F 66 °F (1971)
Degree Days  
Heating Degree Days 0 0  
Month to date heating degree days 0 0  
Since 1 June heating degree days 0 0  
Since 1 July heating degree days 0 0  
Cooling Degree Days 20 17  
Month to date cooling degree days 73 68  
Year to date cooling degree days 2344 1830  
Since 1 June cooling degree days 1187 1079  
Growing Degree Days 34 (Base 50)    
Moisture  
Dew Point 76 °F    
Average Humidity 77    
Maximum Humidity 97    
Minimum Humidity 64    
Precipitation  
Precipitation T in 0.27 in 2.13 in (1969)
Month to date precipitation 1.42 1.12  
Year to date precipitation 29.95 30.31  
Sea Level Pressure  
Sea Level Pressure 29.97 in    
Wind  
Wind Speed 6 mph (WSW)    
Max Wind Speed 12 mph    
Max Gust Speed 16 mph    
Visibility 10 miles    
Events Rain , Tornado    
T = Trace of Precipitation, MM = Missing Value Source: NWS Daily Summary

Daily Weather History Graph

Daily Weather History Graph

Search for Another Location

Airport or City:

Astronomy

Aug. 04, 2019 Rise Set
Actual Time 6:55 AM EDT 8:16 PM EDT
Civil Twilight 6:30 AM EDT 8:41 PM EDT
Nautical Twilight 6:00 AM EDT 9:11 PM EDT
Astronomical Twilight 5:29 AM EDT 9:42 PM EDT
Moon 10:41 AM EDT (8/4) 11:17 PM EDT (8/4)
Length of Visible Light 14h 11m
Length of Day
13h 21m
Waxing Crescent, 18% of the Moon is Illuminated
Aug 4
Waxing Crescent
Aug 7
First Quarter
Aug 15
Full
Aug 23
Last Quarter
Aug 30
New

Hourly Weather History & Observations

Time (EDT) Temp. Heat Index Dew Point Humidity Pressure Visibility Wind Dir Wind Speed Gust Speed Precip Events Conditions
12:53 AM 80.1 °F 85.8 °F 77.0 °F 90% 29.97 in 10.0 mi Calm Calm - N/A   Clear
1:53 AM 80.1 °F 85.8 °F 77.0 °F 90% 29.96 in 10.0 mi Calm Calm - N/A   Scattered Clouds
2:53 AM 80.1 °F 85.8 °F 77.0 °F 90% 29.94 in 10.0 mi ESE 3.5 mph - N/A   Partly Cloudy
3:53 AM 80.1 °F 85.8 °F 77.0 °F 90% 29.94 in 10.0 mi Calm Calm - N/A   Mostly Cloudy
4:17 AM 80.1 °F 85.8 °F 77.0 °F 90% 29.94 in 10.0 mi Calm Calm - N/A   Mostly Cloudy
4:28 AM 80.1 °F 85.4 °F 75.9 °F 87% 29.94 in 10.0 mi Calm Calm - N/A   Scattered Clouds
4:53 AM 79.0 °F - 77.0 °F 94% 29.94 in 10.0 mi Calm Calm - N/A   Partly Cloudy
5:53 AM 79.0 °F - 77.0 °F 94% 29.94 in 10.0 mi Calm Calm - N/A   Clear
6:53 AM 78.1 °F - 77.0 °F 96% 29.96 in 10.0 mi ESE 4.6 mph - N/A   Scattered Clouds
7:30 AM 79.0 °F - 77.0 °F 94% 29.97 in 10.0 mi East 3.5 mph - 0.00 in Rain Light Rain
7:53 AM 80.1 °F 85.8 °F 77.0 °F 90% 29.98 in 10.0 mi East 3.5 mph - 0.00 in   Scattered Clouds
8:53 AM 82.0 °F 90.2 °F 77.0 °F 85% 30.00 in 10.0 mi SE 4.6 mph - N/A   Partly Cloudy
9:53 AM 84.9 °F 94.1 °F 75.9 °F 74% 29.99 in 10.0 mi West 4.6 mph - N/A   Scattered Clouds
10:08 AM 87.1 °F 98.8 °F 77.0 °F 72% 30.00 in 10.0 mi West 6.9 mph - N/A Tornado Funnel Cloud
10:16 AM 87.1 °F 98.8 °F 77.0 °F 72% 30.01 in 10.0 mi West 5.8 mph - N/A   Scattered Clouds
10:53 AM 87.1 °F 98.8 °F 77.0 °F 72% 30.01 in 10.0 mi West 6.9 mph - N/A   Scattered Clouds
11:53 AM 89.1 °F 100.2 °F 75.9 °F 65% 30.00 in 10.0 mi WNW 9.2 mph - N/A   Clear
12:53 PM 89.1 °F 100.2 °F 75.9 °F 65% 29.99 in 10.0 mi West 9.2 mph - N/A   Clear
1:27 PM 89.1 °F 100.2 °F 75.9 °F 65% 29.99 in 10.0 mi WNW 9.2 mph - N/A   Scattered Clouds
1:53 PM 90.0 °F 102.5 °F 77.0 °F 65% 30.00 in 10.0 mi West 8.1 mph - 0.00 in   Scattered Clouds
2:53 PM 90.0 °F 101.3 °F 75.9 °F 63% 29.97 in 10.0 mi West 10.4 mph - N/A   Clear
3:53 PM 89.1 °F 100.2 °F 75.9 °F 65% 29.96 in 10.0 mi West 8.1 mph - N/A   Clear
4:53 PM 89.1 °F 99.1 °F 75.0 °F 63% 29.94 in 10.0 mi West 9.2 mph - N/A   Clear
5:53 PM 89.1 °F 99.1 °F 75.0 °F 63% 29.94 in 10.0 mi West 8.1 mph - N/A   Clear
6:53 PM 87.1 °F 96.3 °F 75.0 °F 67% 29.95 in 10.0 mi West 10.4 mph - N/A   Clear
7:53 PM 86.0 °F 95.1 °F 75.0 °F 70% 29.95 in 10.0 mi West 8.1 mph - N/A   Clear
8:53 PM 84.9 °F 93.3 °F 75.0 °F 72% 29.97 in 10.0 mi SW 6.9 mph - N/A   Clear
9:53 PM 84.9 °F 93.3 °F 75.0 °F 72% 29.99 in 10.0 mi SW 6.9 mph - N/A   Clear
10:53 PM 84.0 °F 91.9 °F 75.0 °F 74% 30.00 in 10.0 mi SW 6.9 mph - N/A   Clear
11:53 PM 84.9 °F 93.3 °F 75.0 °F 72% 29.99 in 10.0 mi SW 6.9 mph - N/A   Partly Cloudy